Content
SEND FEEDBACK

Daily
Averages
Monthly
Summary
United States of America

EAST CARONDELET, ILLINOIS


Home > North America > United States > Illinois
Elevation: 400 feet     Latitude: 38 34N     Longitude: 090 13W

WEATHER
 
SELECT A DAY
Number of Records: 186,481;   Date Range: 1/1/95 - 9/19/14
 
SHARE

PRINT THIS DATA

[ ← Previous Day ]
WEATHER ALMANAC - FEBRUARY 17, 2013
[ Next Day → ]
[ °C ]   °F
Weather ElementAverageHighLow
Temperature34.8 °F48 °F (2:53 pm)19.9 °F (1:53 am)
Dewpoint21.1 °F28.9 °F (6:53 pm)16 °F (1:53 am)
Humidity60.5 %85 % (1:53 am)34 % (2:53 pm)
Barometer30.11 in30.22 in (8:53 am)29.94 in (11:53 pm)
Wind Speed8.3 mph17.3 mph (4:53 pm)
Wind Gust23 mph (1:53 pm)
Weather ElementAverage
Visibility10 mi
Wind DirectionESE (104.1 °)

Weather ElementTotal
Precipitation---
Heating Degree Days31.1 (Base 65)
Averaged from 22 records on February 17, 2013
WEATHER CONDITIONS BREAKOUT
WIND DIRECTION BREAKOUT
WEATHER BY HOUR - FEBRUARY 17, 2013
[ °C ]   °F
Local TimeTemperatureDewpointHumidityBarometerVisibilityWind DirectionWind SpeedGust SpeedPrecipitationEventsConditions
1:53 AM19.9 °F16.0 °F85 %30.19 in10.0 miCalmClear
2:53 AM19.9 °F16.0 °F85 %30.19 in10.0 miCalmClear
3:53 AM21.0 °F16.0 °F81 %30.19 in10.0 miCalmOvercast
4:53 AM21.0 °F16.0 °F81 %30.19 in10.0 miCalmMostly Cloudy
5:53 AM19.9 °F16.0 °F85 %30.21 in10.0 miNE (50°)3.5 mphMostly Cloudy
6:53 AM19.9 °F16.0 °F85 %30.21 in10.0 miCalmOvercast
7:53 AM26.1 °F18.0 °F71 %30.21 in10.0 miESE (110°)3.5 mphOvercast
8:53 AM30.0 °F18.0 °F61 %30.22 in10.0 miSE (130°)9.2 mphOvercast
9:53 AM33.1 °F18.0 °F54 %30.21 in10.0 miSE (130°)10.4 mphMostly Cloudy
10:53 AM37.9 °F19.0 °F47 %30.19 in10.0 miSE (130°)11.5 mphScattered Clouds
11:53 AM41.0 °F19.0 °F41 %30.17 in10.0 miESE (120°)12.7 mph20.7 mphOvercast
12:53 PM43.0 °F19.0 °F38 %30.13 in10.0 miSE (130°)13.8 mph18.4 mphScattered Clouds
1:53 PM45.0 °F19.9 °F37 %30.09 in10.0 miSE (140°)12.7 mph23.0 mphClear
2:53 PM48.0 °F21.0 °F34 %30.06 in10.0 miSE (140°)13.8 mph21.9 mphClear
3:53 PM48.0 °F23.0 °F37 %30.04 in10.0 miSE (140°)12.7 mph21.9 mphClear
4:53 PM46.0 °F24.1 °F42 %30.01 in10.0 miSSE (150°)17.3 mphClear
5:53 PM43.0 °F27.0 °F53 %30.01 in10.0 miSSE (150°)10.4 mphClear
6:53 PM43.0 °F28.9 °F58 %30.02 in10.0 miSSE (160°)12.7 mphClear
7:53 PM42.1 °F28.9 °F60 %30.01 in10.0 miSSE (160°)11.5 mph17.3 mphClear
8:53 PM39.9 °F28.9 °F65 %30.00 in10.0 miSSE (150°)9.2 mphClear
9:53 PM39.0 °F28.0 °F65 %29.98 in10.0 miSSE (150°)10.4 mphClear
11:53 PM37.9 °F27.0 °F65 %29.94 in10.0 miSSE (150°)6.9 mphClear
Hourly data recorded from KCPS, located miles away from East Carondelet, Illinois







STORIES FROM OUR PARTNERS